Overview Statistics Trail Chart Weather Telemetry Raw packets
 

This is the latest recevied weather packets stored in our database for station/object KB8TTR. If no packets are shown the sender has not sent any weather packets the latest 10 day(s).

<< 7 8 9 10 11 12 13 >>
Time Temp. Humidity Pressure Rain* Wind** Luminosity Snow
1788565354 25.56° C 85% 1015.8 hPa 0 mm - 16 W/m² -
1788565049 25.56° C 84% 1015.8 hPa 0 mm - 24 W/m² -
1788564746 25.56° C 84% 1015.7 hPa 0 mm - 32 W/m² -
1788564442 26.11° C 84% 1015.8 hPa 0 mm - 43 W/m² -
1788564138 26.11° C 83% 1015.8 hPa 0 mm - 52 W/m² -
1788563834 26.11° C 81% 1015.7 hPa 0 mm - 54 W/m² -
1788563529 26.11° C 81% 1015.5 hPa 0 mm - 56 W/m² -
1788563229 26.11° C 83% 1015.5 hPa 0 mm - 61 W/m² -
1788562923 26.11° C 83% 1015.5 hPa 0 mm - 65 W/m² -
1788562622 26.11° C 82% 1015.6 hPa 0 mm - 67 W/m² -
1788562316 26.11° C 83% 1015.4 hPa 0 mm - 57 W/m² -
1788562011 26.11° C 82% 1015.4 hPa 0 mm - 66 W/m² -
1788561711 26.11° C 83% 1015.2 hPa 0 mm - 83 W/m² -
1788561410 26.11° C 83% 1015.1 hPa 0 mm - 98 W/m² -
1788561106 26.11° C 84% 1015.2 hPa 0 mm - 104 W/m² -
1788560801 26.11° C 82% 1015.3 hPa 0 mm - 95 W/m² -
1788560497 26.11° C 84% 1015.3 hPa 0 mm - 96 W/m² -
1788560196 26.11° C 83% 1015.5 hPa 0 mm - 117 W/m² -
1788559891 26.11° C 82% 1015.4 hPa 0 mm - 147 W/m² -
1788559586 26.11° C 83% 1015.4 hPa 0 mm - 152 W/m² -
1788559282 26.11° C 83% 1015.3 hPa 0 mm - 153 W/m² -
1788558981 26.11° C 82% 1015.2 hPa 0 mm - 155 W/m² -
1788558678 26.11° C 82% 1015 hPa 0 mm - 158 W/m² -
1788558377 26.11° C 84% 1014.8 hPa 0 mm - 165 W/m² -
1788558073 25.56° C 83% 1014.9 hPa 0 mm - 165 W/m² -

* Rain latest hour (hover to see other rain measurements)
** Current wind speed in m/s (hover to see current wind gust speed)